Stations météo

réclame
Mon MeteoGroup
Calvi, France (7754): Température de l'air & dewpoint: 18.05.2019 05:00:00 - 24.05.2019 05:00:00 (CEST)Calvi, France (7754): Température de l'air 5cm: 18.05.2019 05:00:00 - 24.05.2019 05:00:00 (CEST)Calvi, France (7754): Vitesse du vent & gusts: 18.05.2019 05:00:00 - 24.05.2019 05:00:00 (CEST)Calvi, France (7754): Direction du vent: 18.05.2019 05:00:00 - 24.05.2019 05:00:00 (CEST)Calvi, France (7754): reduced air pressure: 18.05.2019 05:00:00 - 24.05.2019 05:00:00 (CEST)Calvi, France (7754): visibility: 18.05.2019 05:00:00 - 24.05.2019 05:00:00 (CEST)Calvi, France (7754): Quantités de précipitations: 18.05.2019 05:00:00 - 24.05.2019 05:00:00 (CEST)
Date & Time tt [°C] td [°C] tt 5cm [°C] ff [km/h] ff [knt] fx [km/h] fx [knt] dd ppp [hPa] vv [km] rr [mm]
24.05.2019 05:00:00 11,4 10,9 10,3 8 5 15 8 S 1015,0 9 0,0
24.05.2019 04:00:00 10,7 9,9 10,3 6 3 9 5 SW 1015,7 9 0,2
24.05.2019 03:00:00 11,5 10,7 10,7 5 3 11 6 S 1015,7 7 0,0
24.05.2019 02:00:00 11,1 10,3 10,6 7 4 9 5 SSW 1016,1 8 0,0
24.05.2019 01:00:00 12,3 11,4 11,7 6 3 11 6 S 1016,2 6 0,0
24.05.2019 00:00:00 12,8 11,7 12,2 6 3 9 5 S 1016,4 8 0,0
23.05.2019 23:00:00 14,4 13,1 13,8 8 4 11 6 S 1016,4 7 0,0
23.05.2019 22:00:00 16,3 15,0 15,5 5 3 16 8 NNW 1016,4 14 0,0
23.05.2019 21:00:00 17,3 14,9 16,7 9 5 16 8 NNW 1015,9 21 0,0
23.05.2019 20:00:00 20,4 15,4 23,2 6 3 9 5 N 1015,3 36 0,0
23.05.2019 19:00:00 21,2 15,7 25,8 5 3 16 9 NW 1015,2 20 0,0
23.05.2019 18:00:00 19,8 15,4 24,9 13 7 25 13 NE 1015,9 31 0,0
23.05.2019 17:00:00 19,9 15,1 26,0 13 7 21 11 N 1016,0 20 0,0
23.05.2019 16:00:00 19,8 14,8 26,3 13 7 23 12 N 1016,5 19 0,0
23.05.2019 15:00:00 19,7 14,7 23,6 11 6 26 14 N 1017,1 20 0,0
23.05.2019 14:00:00 19,3 14,5 22,9 18 10 27 15 N 1017,5 19 0,0
23.05.2019 13:00:00 20,1 15,3 24,4 16 9 28 15 N 1017,2 20 0,0
23.05.2019 12:00:00 19,7 15,1 22,2 15 8 23 12 N 1017,4 20 0,0
23.05.2019 11:00:00 18,8 15,1 21,0 13 7 22 12 NNW 1017,7 17 0,0
23.05.2019 10:00:00 18,4 14,5 20,6 13 7 23 12 N 1017,6 19 0,0
23.05.2019 09:00:00 17,7 14,8 17,8 11 6 19 10 N 1017,3 13 0,0
23.05.2019 08:00:00 16,2 14,4 16,4 5 3 8 5 NNE 1016,9 17 0,0
23.05.2019 07:00:00 15,0 13,9 14,1 4 2 9 5 SE 1016,8 14 0,0
23.05.2019 06:00:00 14,3 13,2 13,2 6 3 9 5 S 1016,6 10 0,0
23.05.2019 05:00:00 13,7 12,6 12,9 6 3 9 5 S 1017,0 7 0,0
23.05.2019 04:00:00 15,1 13,6 14,5 3 2 7 4 WSW 1016,7 12 0,0
23.05.2019 03:00:00 15,4 13,8 14,8 2 1 7 4 N 1017,0 14 0,0
23.05.2019 02:00:00 15,7 13,7 15,2 5 3 11 6 SSW 1017,3 16 0,0
23.05.2019 01:00:00 16,3 14,1 16,3 3 1 6 3 E 1017,3 15 0,0
23.05.2019 00:00:00 16,4 14,2 15,8 2 1 5 3 SE 1017,1 16 0,0
22.05.2019 23:00:00 16,2 13,7 15,7 4 2 8 5 WSW 1016,8 18 0,0
22.05.2019 22:00:00 16,9 14,0 16,9 2 1 5 3 N 1016,6 17 0,0
22.05.2019 21:00:00 17,1 13,6 17,2 4 2 8 4 N 1016,1 19 0,0
22.05.2019 20:00:00 17,3 13,6 17,6 5 3 12 6 NNW 1015,8 26 0,0
22.05.2019 19:00:00 17,6 13,5 18,4 5 3 14 8 NW 1015,6 30 0,0
22.05.2019 18:00:00 17,5 13,6 18,3 10 5 16 9 NNW 1015,9 29 0,0
22.05.2019 17:00:00 18,3 13,8 20,2 11 6 22 12 NNW 1015,7 20 0,0
22.05.2019 16:00:00 18,2 13,5 21,2 16 9 26 14 NNW 1015,6 18 0,0
22.05.2019 15:00:00 18,7 14,4 21,6 15 8 34 19 NNW 1015,8 20 0,0
22.05.2019 14:00:00 19,2 13,6 22,8 16 9 30 16 NNW 1015,7 19 0,0
22.05.2019 13:00:00 19,4 14,0 23,4 16 9 32 17 NNW 1015,7 18 0,0
22.05.2019 12:00:00 19,9 13,1 19,9 16 9 32 17 N 1015,5 15 0,0
22.05.2019 11:00:00 19,7 12,5 19,1 10 6 21 11 NNW 1014,9 20 0,0
22.05.2019 10:00:00 18,3 13,2 19,2 11 6 25 13 NNW 1014,7 20 0,0
22.05.2019 09:00:00 18,7 12,2 18,6 11 6 21 11 N 1014,0 49 0,0
22.05.2019 08:00:00 17,3 11,8 16,5 0 0 18 10 N 1013,9 20 0,0
22.05.2019 07:00:00 16,8 9,5 16,0 14 7 26 14 SE 1013,9 59 0,0
22.05.2019 06:00:00 16,9 9,1 16,3 18 10 32 18 S 1013,6 60 0,0
22.05.2019 05:00:00 17,4 9,0 17,1 21 11 36 20 S 1013,4 60 0,0
22.05.2019 04:00:00 17,9 8,7 17,3 21 11 39 21 S 1013,4 60 0,0
22.05.2019 03:00:00 18,0 8,5 17,4 19 10 40 21 S 1013,8 60 0,0
22.05.2019 02:00:00 18,4 8,6 17,3 18 10 42 23 SSW 1014,1 60 0,0
22.05.2019 01:00:00 17,9 8,2 17,1 19 11 37 20 SSW 1014,5 60 0,0
22.05.2019 00:00:00 17,9 7,9 17,2 18 10 37 20 SSW 1014,8 60 0,0
21.05.2019 23:00:00 18,0 7,7 17,4 18 10 30 16 SSW 1015,1 60 0,0
21.05.2019 22:00:00 18,4 7,5 17,5 17 9 39 21 SSW 1014,5 60 0,0
21.05.2019 21:00:00 18,8 7,2 18,0 21 12 38 21 S 1014,1 60 0,0
21.05.2019 20:00:00 18,9 8,5 18,8 21 11 47 25 SSW 1013,8 50 0,0
21.05.2019 19:00:00 19,7 9,0 21,3 27 14 49 26 SSW 1013,6 39 0,0
21.05.2019 18:00:00 20,8 9,4 23,6 25 14 47 25 SW 1013,2 20 0,0
21.05.2019 17:00:00 22,1 8,6 25,2 30 16 57 31 S 1012,7 19 0,0
21.05.2019 16:00:00 22,6 8,3 25,5 28 15 55 30 S 1012,4 17 0,0
21.05.2019 15:00:00 22,9 9,3 25,0 29 15 61 33 S 1012,3 15 0,0
21.05.2019 14:00:00 23,2 9,6 24,2 26 14 56 30 SSW 1012,1 14 0,0
21.05.2019 13:00:00 22,8 9,2 24,8 29 16 57 31 S 1011,8 13 0,0
21.05.2019 12:00:00 22,1 8,6 23,8 32 17 62 33 S 1011,5 9 0,0
21.05.2019 11:00:00 22,2 10,7 22,4 31 17 61 33 SSW 1011,1 7 0,0
21.05.2019 10:00:00 21,1 8,4 21,3 31 17 56 31 S 1010,4 2,1 0,0
21.05.2019 09:00:00 20,4 8,1 19,9 32 17 53 29 S 1010,2 26 0,0
21.05.2019 08:00:00 19,4 8,4 16,8 29 16 49 26 S 1010,0 31 0,0
21.05.2019 07:00:00 17,4 8,8 15,8 22 12 42 23 SSW 1009,8 37 0,0
21.05.2019 06:00:00 16,4 9,3 15,5 22 12 51 28 SSW 1009,5 59 0,0
21.05.2019 05:00:00 16,3 9,9 15,7 23 12 58 31 SSW 1009,2 51 0,0
21.05.2019 04:00:00 16,5 10,3 15,9 34 18 55 30 SSW 1009,5 44 0,0
21.05.2019 03:00:00 16,5 10,6 15,5 24 13 48 26 SSW 1010,0 41 0,0
21.05.2019 02:00:00 16,3 11,0 15,6 22 12 42 23 SSW 1010,5 38 0,0
21.05.2019 01:00:00 16,5 11,0 15,9 21 11 41 22 S 1010,5 43 0,0
21.05.2019 00:00:00 16,2 11,4 14,6 22 12 46 25 SSW 1009,9 47 0,0
20.05.2019 23:00:00 15,7 11,9 14,1 22 12 48 26 SSW 1009,5 30 0,0
20.05.2019 22:00:00 16,4 11,1 15,9 19 11 41 22 SSW 1009,2 38 0,0
20.05.2019 21:00:00 16,4 11,1 16,0 19 11 37 20 SSW 1008,9 39 0,0
20.05.2019 20:00:00 17,2 11,0 17,3 23 12 37 20 S 1008,9 41 0,0
20.05.2019 19:00:00 17,9 11,2 18,7 21 12 36 19 SSW 1008,6 60 0,0
20.05.2019 18:00:00 19,6 11,1 22,9 21 11 36 19 WSW 1008,1 58 0,0
20.05.2019 17:00:00 20,4 11,1 23,8 18 10 38 21 WSW 1007,5 60 0,0
20.05.2019 16:00:00 20,2 11,4 22,1 24 13 37 20 SW 1007,4 60 0,0
20.05.2019 15:00:00 20,9 10,7 21,8 14 7 28 15 SW 1007,3 60 0,0
20.05.2019 14:00:00 19,7 9,3 20,3 8 5 23 12 SW 1007,4 58 0,0
20.05.2019 13:00:00 18,5 7,9 20,1 7 4 16 9 NNW 1007,2 54 0,0
20.05.2019 12:00:00 18,1 6,9 20,0 10 5 28 15 NW 1006,8 51 0,0
20.05.2019 11:00:00 19,3 8,0 21,0 14 7 29 16 N 1006,2 60 0,0
20.05.2019 10:00:00 19,4 8,4 21,6 11 6 20 11 NW 1006,2 60 0,0
20.05.2019 09:00:00 18,5 7,0 17,1 9 5 29 16 ESE 1005,9 60 0,0
20.05.2019 08:00:00 16,3 6,4 14,1 18 10 31 17 SW 1005,7 60 0,0
20.05.2019 07:00:00 14,7 6,0 13,2 14 8 25 14 SSW 1005,8 60 0,0
20.05.2019 06:00:00 13,9 5,5 13,1 14 8 23 13 SSW 1005,6 60 0,0
20.05.2019 05:00:00 14,1 5,4 12,7 14 8 24 13 SSW 1005,9 60 0,0
20.05.2019 04:00:00 13,4 5,5 12,5 14 8 30 16 SW 1006,4 60 0,0
20.05.2019 03:00:00 13,7 6,3 13,0 19 10 29 16 SSW 1006,6 60 0,0
20.05.2019 02:00:00 14,0 7,1 12,8 16 8 28 15 SSW 1007,1 60 0,0
20.05.2019 01:00:00 13,9 7,9 12,9 16 9 31 17 S 1007,4 60 0,0
20.05.2019 00:00:00 13,8 7,1 12,9 13 7 34 19 SSW 1007,5 60 0,0
19.05.2019 23:00:00 13,7 8,3 13,0 14 7 32 18 SSW 1007,4 60 0,0
19.05.2019 22:00:00 14,3 8,9 13,7 18 10 35 19 S 1007,4 60 0,0
19.05.2019 21:00:00 14,8 8,7 14,3 17 9 34 19 SSW 1007,2 60 0,0
19.05.2019 20:00:00 15,9 9,1 16,6 17 9 38 20 SSW 1006,9 60 0,0
19.05.2019 19:00:00 16,8 8,5 17,8 21 11 39 21 SW 1006,5 50 0,0
19.05.2019 18:00:00 18,4 10,7 19,2 19 11 37 20 SW 1006,4 60 0,0
19.05.2019 17:00:00 18,0 11,1 18,6 18 10 36 19 SSW 1006,2 20 0,0
19.05.2019 16:00:00 17,8 11,1 18,3 17 9 45 25 SW 1006,0 60 0,0
19.05.2019 15:00:00 17,9 11,7 17,4 17 9 39 21 S 1005,8 53 0,0
19.05.2019 14:00:00 17,1 10,7 18,0 24 13 43 23 SSW 1005,5 60 0,0
19.05.2019 13:00:00 17,3 9,7 18,5 19 10 34 19 SSW 1005,2 60 0,0
19.05.2019 12:00:00 16,8 10,4 16,4 19 10 37 20 S 1005,4 60 0,0
19.05.2019 11:00:00 16,2 11,1 16,1 19 10 34 19 SSW 1005,2 60 0,0
19.05.2019 10:00:00 15,1 11,3 14,8 14 8 33 18 SSW 1005,1 45 0,0
19.05.2019 09:00:00 14,2 11,0 13,0 16 9 31 17 SSW 1005,2 59 0,0
19.05.2019 08:00:00 12,8 11,0 11,5 16 8 21 11 S 1005,1 60 0,0
19.05.2019 07:00:00 11,9 10,8 11,5 9 5 22 12 SSW 1005,5 12 3,9
19.05.2019 06:00:00 12,2 11,3 11,7 12 7 17 9 S 1005,5 7 2,6
19.05.2019 05:00:00 12,2 11,6 12,0 0 0 6 3 N 1005,4 11 0,2
19.05.2019 04:00:00 12,3 11,8 12,0 0 0 4 2 N 1006,0 49 0,0
19.05.2019 03:00:00 12,1 11,6 11,9 2 1 8 4 SE 1006,4 11 0,8
19.05.2019 02:00:00 12,3 11,8 12,0 3 2 10 6 SW 1007,0 2,4 1,0
19.05.2019 01:00:00 12,4 11,9 12,1 6 4 14 7 S 1007,5 3,0 1,0
19.05.2019 00:00:00 12,5 11,9 12,1 8 4 10 5 SE 1007,6 3,5 1,6
18.05.2019 23:00:00 12,7 11,6 12,3 5 3 13 7 SW 1007,7 1,7 1,0
18.05.2019 22:00:00 13,0 11,7 12,7 5 3 13 7 NW 1007,4 19 0,0
18.05.2019 21:00:00 13,3 12,2 13,0 4 2 20 11 NW 1006,9 46 0,0
18.05.2019 20:00:00 13,6 12,8 13,4 10 6 20 11 NW 1006,3 29 0,0
18.05.2019 19:00:00 14,0 13,0 13,5 3 2 13 7 SSW 1005,7 16 2,2
18.05.2019 18:00:00 14,1 13,0 13,7 11 6 15 8 S 1005,6 51 0,0
18.05.2019 17:00:00 13,8 13,0 13,5 6 4 25 14 NW 1005,1 2,8 1,0
18.05.2019 16:00:00 13,9 12,8 13,7 15 8 36 19 N 1004,6 4,8 1,0
18.05.2019 15:00:00 14,4 13,6 14,1 22 12 35 19 N 1003,9 2,1 2,0
18.05.2019 14:00:00 15,4 14,4 15,1 13 7 28 15 N 1003,5 4,2 0,8
18.05.2019 13:00:00 16,3 13,8 17,4 10 5 26 14 NNW 1003,0 19 0,0
18.05.2019 12:00:00 16,8 13,3 18,7 15 8 23 13 NNW 1002,6 20 0,0
18.05.2019 11:00:00 17,7 13,0 16,5 8 5 23 13 WNW 1002,0 36 0,0
18.05.2019 10:00:00 16,0 12,0 16,5 16 9 24 13 S 1001,5 47 0,0
18.05.2019 09:00:00 16,7 12,8 15,8 3 2 20 11 SSW 1001,1 60 0,0
18.05.2019 08:00:00 15,0 12,7 13,3 8 5 22 12 WNW 1000,7 49 0,0
18.05.2019 07:00:00 13,0 12,1 12,5 6 3 13 7 SE 1000,6 44 0,0
18.05.2019 06:00:00 12,7 11,9 12,3 9 5 12 7 SSW 1000,8 55 0,0
18.05.2019 05:00:00 12,6 12,0 12,2 9 5 11 6 SSE 1001,0 36 0,0

tt = Température de l'air
td = dewpoint
tt 5cm = Température de l'air 5cm
ff = Vitesse du vent
fx = gusts
dd = Direction du vent
ppp = reduced air pressure
vv = visibility
rr = Quantités de précipitations

stations d'obs. à proximité